Главная страница
METAR-TAF:

METAR-TAF

Аэропорты :

Витмунд, Германия

широта: 53-33N, долгота: 007-40E, высота над уровнем моря: 8 м

Текущие метеонаблюдения

Эта сводка был подготовлена 21 минут назад, в 00:20 UTC
Ветер 3 Узел от восточно-северо-восточный
Температура 4°C
Влажность 81%
Давление 1028 hPa
Видимость: 5000 м

METAR: ETNT 210020Z AUTO 06003KT 5000 // ////// 04/01 Q1028 ///

Время: 02:41 (00:41 UTC)


TAF: отсутствует

Метеонаблюдения и прогнозы для более 4000 аэропортов (сводки METAR и TAF).

Имеющиеся станции представлены на карте желтыми и красными точками.

Чтобы увидеть название станции, наведите на нее мышь.

Затем щелкните, чтобы увидеть метеонаблюдения и метеопрогнозы.

Управление картой: чтобы увеличить масштаб, щелкните зеленые кнопки с черным крестиком; чтобы уменьшить масштаб, щелкните зеленую кнопку с тире; для просмотра соседних карт щелкайте зеленые стрелки.


METAR-TAF: